[[{"header":{"parameterUnit":"m.s-1","parameterCategory":1,"la1":30.2991,"la2":30.254,"lo1":-89.0895,"lo2":-89.0444,"dy":0.0017,"dx":0.0017,"nx":28,"ny":28,"refTime":"2025-03-19T21:00:00:Z","depth":0,"parameterNumber":2,"parameterNumberName":"U-component_of_WINDS"},"data":[0,0,0,0,0,0,0,0,0,0,0,0,0,0,0,0,0,0,0,0,0,0,0,0,0,0,0,0,0,0,0,0,0,0,0,0,0,0,0,0,0,0,0,0,0,0,0,0,0,0,0,0,0,0,0,0,0,0,-3.2291,-3.2291,0,-3.2303,-3.2303,-3.2303,-3.2259,-3.2257,-3.2256,-3.2255,-3.2267,-3.2269,-3.227,0,0,0,0,0,0,0,0,0,0,0,0,0,-3.2228,-3.2229,-3.2291,-3.2291,-3.2291,-3.2303,-3.2303,-3.2304,-3.2259,-3.2257,-3.2256,-3.2254,-3.2267,-3.2269,-3.2271,0,0,0,0,0,0,0,0,0,0,0,0,0,-3.2249,-3.2229,-3.2291,-3.227,-3.2268,-3.2303,-3.2303,-3.2304,-3.2259,-3.2257,-3.2255,-3.2253,-3.2266,-3.2268,-3.2271,-3.2326,0,0,-3.2278,-3.2279,0,0,0,0,0,0,0,0,-3.2248,-3.2251,-3.2273,-3.2272,-3.227,-3.2277,-3.2286,-3.2311,-3.226,-3.2263,-3.2255,-3.2252,-3.2272,-3.2274,-3.2281,-3.2326,-3.2327,-3.2278,-3.228,-3.2281,-3.2281,0,0,0,0,0,0,0,-3.2246,-3.2251,-3.2295,-3.2273,-3.2271,-3.226,-3.2261,-3.229,-3.2279,-3.2262,-3.2259,-3.2261,-3.2271,-3.2279,-3.2281,-3.2327,-3.2278,-3.228,-3.2282,-3.2283,-3.2418,-3.242,0,0,0,0,0,0,-3.2248,-3.225,-3.2295,-3.2296,-3.2254,-3.2263,-3.2264,-3.2277,-3.2278,-3.2276,-3.2263,-3.2259,-3.2275,-3.2278,-3.2281,-3.2345,-3.2281,-3.2283,-3.2284,-3.2416,-3.2419,-3.2421,0,0,0,0,0,0,-3.2247,-3.2252,-3.2295,-3.2272,-3.2276,-3.2266,-3.2281,-3.2278,-3.2286,-3.2279,-3.2276,-3.2273,-3.2274,-3.2278,-3.2315,-3.2345,-3.2284,-3.2286,-3.2413,-3.2417,-3.242,-3.2474,0,0,0,0,0,0,-3.2245,-3.2252,-3.2273,-3.2273,-3.2278,-3.2329,-3.2283,-3.228,-3.229,-3.2285,-3.2287,-3.2286,-3.2273,-3.2312,-3.2317,-3.2347,-3.2288,-3.2411,-3.2415,-3.2419,-3.247,-3.2479,-3.2487,0,0,0,0,0,-3.2243,-3.2287,-3.2274,-3.228,-3.2304,-3.233,-3.2333,-3.2317,-3.2293,-3.2313,-3.2309,-3.2286,-3.2341,-3.2316,-3.2322,-3.2353,-3.2409,-3.2414,-3.2419,-3.2466,-3.2477,-3.2487,0,0,0,0,0,0,-3.2291,-3.2287,-3.2272,-3.2318,-3.2325,-3.2323,-3.2348,-3.233,-3.2344,-3.2339,-3.2318,-3.2319,-3.236,-3.236,-3.2332,-3.2406,-3.2371,-3.2377,-3.2405,-3.2415,-3.2424,-3.2423,-3.229,0,0,0,0,0,-3.2307,-3.2329,-3.2324,-3.2365,-3.237,-3.2359,-3.237,-3.2357,-3.2363,-3.2366,-3.2364,-3.2371,-3.239,-3.2402,-3.2419,-3.247,-3.247,-3.2494,-3.2503,-3.251,-3.2515,-3.2542,-3.2553,-3.2437,-3.2437,-3.2437,0,0,-3.234,-3.2341,-3.2356,-3.2375,-3.2379,-3.2402,-3.2361,-3.2388,-3.2405,-3.237,-3.2405,-3.2404,-3.241,-3.2454,-3.2474,-3.2456,-3.2547,-3.2516,-3.2522,-3.2523,-3.2548,-3.2559,-3.2569,-3.244,-3.244,-3.2439,0,0,-3.2412,-3.2415,-3.245,-3.2454,-3.2461,-3.2453,-3.2462,-3.2463,-3.2461,-3.2496,-3.247,-3.249,-3.2523,-3.2529,-3.2536,-3.2611,-3.259,-3.2617,-3.2662,-3.2688,-3.2697,-3.2705,-3.2732,-3.2742,-3.2623,-3.2623,-3.2623,0,-3.2452,-3.2487,-3.247,-3.2498,-3.2507,-3.2477,-3.2512,-3.2517,-3.2529,-3.2536,-3.2516,-3.2557,-3.2559,-3.2604,-3.2622,-3.2629,-3.2638,-3.2617,-3.2697,-3.2705,-3.2712,-3.2738,-3.2748,-3.2626,-3.2626,-3.2626,-3.2625,0,-3.2536,-3.256,-3.2587,-3.26,-3.2612,-3.2644,-3.2631,-3.2646,-3.2632,-3.2627,-3.2663,-3.2665,-3.2682,-3.2692,-3.2678,-3.2735,-3.2724,-3.2701,-3.2665,-3.2727,-3.275,-3.276,-3.2631,-3.263,-3.2629,-3.2628,0,0,-3.2638,-3.2641,-3.2651,-3.2657,-3.2662,-3.268,-3.2711,-3.2727,-3.274,-3.275,-3.2774,-3.2803,-3.2782,-3.2791,-3.2778,-3.2801,-3.2861,-3.2776,-3.2775,-3.2791,-3.2923,-3.294,-3.2951,-3.2847,-3.2849,-3.285,-3.2922,0,-3.2709,-3.2761,-3.2747,-3.2798,-3.282,-3.2793,-3.2819,-3.2825,-3.2821,-3.2839,-3.2835,-3.2856,-3.2826,-3.2831,-3.2853,-3.2849,-3.2887,-3.2844,-3.287,-3.2871,-3.2869,-3.2964,-3.2981,-3.3049,-3.2932,-3.2933,-3.2934,0,-3.2798,-3.2811,-3.2866,-3.2868,-3.2876,-3.29,-3.2915,-3.2933,-3.2939,-3.2934,-3.2944,-3.2927,-3.2957,-3.2921,-3.2962,-3.2933,-3.2943,-3.2942,-3.2945,-3.2946,-3.2906,-3.2967,-3.307,-3.3081,-3.2948,-3.2947,-3.2946,0,-3.2867,-3.2898,-3.2935,-3.294,-3.2944,-3.2961,-3.2963,-3.2968,-3.2979,-3.2992,-3.2999,-3.3015,-3.3023,-3.3036,-3.3024,-3.2999,-3.3067,-3.303,-3.3063,-3.3064,-3.3078,-3.3078,-3.3184,-3.3086,-3.3086,-3.3085,-3.3085,0,-3.2948,-3.2982,-3.2966,-3.2988,-3.3026,-3.3009,-3.3047,-3.3046,-3.305,-3.3072,-3.3049,-3.307,-3.3052,-3.3072,-3.3062,-3.3097,-3.3102,-3.3099,-3.3096,-3.3101,-3.3101,-3.3106,-3.3101,-3.3088,-3.3088,-3.3087,-3.3087,0,-3.303,-3.3021,-3.3059,-3.3059,-3.306,-3.3088,-3.3088,-3.3109,-3.3103,-3.3131,-3.3137,-3.3128,-3.315,-3.3139,-3.3162,-3.3155,-3.3201,-3.3191,-3.3199,-3.3196,-3.323,-3.3227,-3.3344,-3.3358,-3.3251,-3.3252,-3.3253,0,-3.3082,-3.3108,-3.3111,-3.3124,-3.3128,-3.3149,-3.316,-3.3145,-3.3158,-3.3168,-3.3188,-3.3207,-3.3222,-3.3258,-3.3254,-3.3271,-3.3262,-3.3302,-3.3264,-3.3268,-3.3262,-3.326,-3.3263,-3.3309,-3.331,-3.3311,-3.3312,0,-3.3175,-3.3169,-3.3186,-3.3203,-3.3217,-3.3229,-3.3239,-3.3251,-3.3236,-3.3252,-3.3274,-3.3285,-3.3308,-3.3328,-3.3343,-3.3345,-3.3326,-3.3324,-3.3333,-3.3338,-3.334,-3.3339,-3.3219,-3.3321,-3.332,-3.332,-3.3319,-3.3319,-3.3243,-3.3265,-3.3271,-3.3291,-3.3297,-3.3307,-3.3326,-3.3324,-3.3342,-3.336,-3.335,-3.3376,-3.3382,-3.34,-3.3405,-3.3425,-3.3409,-3.3421,-3.3424,-3.3428,-3.3432,-3.3338,-3.3427,-3.3427,-3.3427,-3.3426,-3.3426,0,-3.3334,-3.3337,-3.3356,-3.3371,-3.3387,-3.3368,-3.3378,-3.3393,-3.3416,-3.3423,-3.3439,-3.3464,-3.3483,-3.3481,-3.3499,-3.3515,-3.3507,-3.352,-3.3519,-3.3519,-3.3445,-3.3436,-3.3527,-3.3527,-3.3527,-3.3527,-3.3526,-3.3526,-3.3384,-3.3419,-3.3415,-3.3453,-3.3455,-3.348,-3.3488,-3.3497,-3.3503,-3.3532,-3.3548,-3.3547,-3.355,-3.3568,-3.3585,-3.3584,-3.3591,-3.3608,-3.3604,-3.3535,-3.3525,-3.3515,-3.3506,-3.361,-3.361,-3.3676,-3.3676,-3.3677]},{"header":{"parameterUnit":"m.s-1","parameterCategory":1,"la1":30.2991,"la2":30.254,"lo1":-89.0895,"lo2":-89.0444,"dy":0.0017,"dx":0.0017,"nx":28,"ny":28,"refTime":"2025-03-19T21:00:00:Z","depth":0,"parameterNumber":3,"parameterNumberName":"V-component_of_WINDS"},"data":[0,0,0,0,0,0,0,0,0,0,0,0,0,0,0,0,0,0,0,0,0,0,0,0,0,0,0,0,0,0,0,0,0,0,0,0,0,0,0,0,0,0,0,0,0,0,0,0,0,0,0,0,0,0,0,0,0,0,-1.1985,-1.1985,0,-1.1992,-1.1992,-1.1992,-1.1964,-1.1963,-1.1963,-1.1962,-1.197,-1.1971,-1.1972,0,0,0,0,0,0,0,0,0,0,0,0,0,-1.1945,-1.1946,-1.1985,-1.1985,-1.1985,-1.1992,-1.1992,-1.1992,-1.1964,-1.1963,-1.1962,-1.1961,-1.197,-1.1971,-1.1972,0,0,0,0,0,0,0,0,0,0,0,0,0,-1.1959,-1.1947,-1.1985,-1.1972,-1.1971,-1.1992,-1.1992,-1.1992,-1.1965,-1.1963,-1.1962,-1.1961,-1.197,-1.1971,-1.1972,-1.2007,0,0,-1.1977,-1.1978,0,0,0,0,0,0,0,0,-1.1958,-1.196,-1.1973,-1.1973,-1.1971,-1.1976,-1.1982,-1.1997,-1.1965,-1.1967,-1.1962,-1.196,-1.1973,-1.1974,-1.1979,-1.2008,-1.2008,-1.1977,-1.1978,-1.1979,-1.1979,0,0,0,0,0,0,0,-1.1957,-1.196,-1.1988,-1.1974,-1.1972,-1.1965,-1.1966,-1.1985,-1.1977,-1.1967,-1.1965,-1.1966,-1.1972,-1.1977,-1.1979,-1.2008,-1.1977,-1.1979,-1.1979,-1.198,-1.2065,-1.2067,0,0,0,0,0,0,-1.1958,-1.1959,-1.1987,-1.1988,-1.1961,-1.1967,-1.1968,-1.1976,-1.1977,-1.1976,-1.1967,-1.1964,-1.1975,-1.1977,-1.1979,-1.2019,-1.1979,-1.198,-1.1981,-1.2064,-1.2066,-1.2067,0,0,0,0,0,0,-1.1957,-1.1961,-1.1987,-1.1973,-1.1976,-1.1969,-1.1978,-1.1977,-1.1981,-1.1977,-1.1976,-1.1973,-1.1974,-1.1977,-1.2,-1.2019,-1.1981,-1.1982,-1.2062,-1.2065,-1.2066,-1.2101,0,0,0,0,0,0,-1.1956,-1.1961,-1.1974,-1.1973,-1.1977,-1.2008,-1.198,-1.1978,-1.1984,-1.1981,-1.1982,-1.1982,-1.1973,-1.1998,-1.2002,-1.2021,-1.1983,-1.2061,-1.2063,-1.2066,-1.2098,-1.2104,-1.2109,0,0,0,0,0,-1.1955,-1.1983,-1.1975,-1.1978,-1.1993,-1.201,-1.2011,-1.2001,-1.1986,-1.1999,-1.1996,-1.1982,-1.2016,-1.2001,-1.2005,-1.2024,-1.2059,-1.2063,-1.2066,-1.2095,-1.2102,-1.2108,0,0,0,0,0,0,-1.1986,-1.1983,-1.1973,-1.2003,-1.2007,-1.2005,-1.2021,-1.2009,-1.2018,-1.2015,-1.2002,-1.2003,-1.2028,-1.2028,-1.2011,-1.2057,-1.2035,-1.2039,-1.2057,-1.2063,-1.2069,-1.2068,-1.1985,0,0,0,0,0,-1.1997,-1.2011,-1.2007,-1.2033,-1.2035,-1.2028,-1.2035,-1.2027,-1.203,-1.2032,-1.2031,-1.2035,-1.2047,-1.2055,-1.2066,-1.2097,-1.2097,-1.2113,-1.2118,-1.2123,-1.2126,-1.2143,-1.215,-1.2077,-1.2077,-1.2077,0,0,-1.2018,-1.2018,-1.2028,-1.2039,-1.2041,-1.2056,-1.203,-1.2046,-1.2057,-1.2035,-1.2057,-1.2056,-1.206,-1.2087,-1.21,-1.2088,-1.2146,-1.2126,-1.213,-1.2131,-1.2147,-1.2154,-1.216,-1.2079,-1.2079,-1.2078,0,0,-1.2065,-1.2066,-1.2088,-1.2091,-1.2094,-1.2089,-1.2094,-1.2094,-1.2092,-1.2114,-1.2098,-1.211,-1.2131,-1.2134,-1.2139,-1.2186,-1.2173,-1.219,-1.2218,-1.2234,-1.224,-1.2245,-1.2262,-1.2268,-1.2193,-1.2193,-1.2193,0,-1.2092,-1.2113,-1.2101,-1.2118,-1.2124,-1.2104,-1.2126,-1.2129,-1.2136,-1.214,-1.2127,-1.2152,-1.2153,-1.2182,-1.2193,-1.2197,-1.2203,-1.219,-1.224,-1.2245,-1.2249,-1.2265,-1.2272,-1.2195,-1.2195,-1.2195,-1.2195,0,-1.2145,-1.216,-1.2177,-1.2184,-1.2191,-1.2211,-1.2202,-1.2211,-1.2202,-1.2198,-1.222,-1.2221,-1.2231,-1.2237,-1.2228,-1.2264,-1.2257,-1.2242,-1.222,-1.2259,-1.2273,-1.2279,-1.2198,-1.2197,-1.2197,-1.2196,0,0,-1.2213,-1.2212,-1.2218,-1.2221,-1.2223,-1.2234,-1.2253,-1.2262,-1.227,-1.2275,-1.2291,-1.2308,-1.2295,-1.23,-1.2291,-1.2306,-1.2343,-1.2289,-1.2289,-1.2299,-1.2382,-1.2393,-1.24,-1.2334,-1.2335,-1.2336,-1.2381,0,-1.2258,-1.229,-1.228,-1.2312,-1.2325,-1.2306,-1.2322,-1.2325,-1.2322,-1.2333,-1.2329,-1.2342,-1.2323,-1.2325,-1.2339,-1.2336,-1.2359,-1.2332,-1.2348,-1.2349,-1.2348,-1.2408,-1.242,-1.2462,-1.2387,-1.2388,-1.2389,0,-1.2316,-1.2323,-1.2357,-1.2356,-1.2361,-1.2376,-1.2384,-1.2394,-1.2397,-1.2394,-1.2399,-1.2387,-1.2405,-1.2382,-1.2407,-1.2389,-1.2395,-1.2394,-1.2395,-1.2397,-1.2372,-1.2411,-1.2476,-1.2482,-1.2398,-1.2397,-1.2396,0,-1.2362,-1.238,-1.2402,-1.2405,-1.2405,-1.2415,-1.2416,-1.2417,-1.2424,-1.243,-1.2434,-1.2443,-1.2448,-1.2456,-1.2447,-1.2431,-1.2473,-1.2449,-1.247,-1.2471,-1.2481,-1.248,-1.2548,-1.2484,-1.2484,-1.2484,-1.2484,0,-1.2415,-1.2436,-1.2423,-1.2437,-1.246,-1.2447,-1.247,-1.2469,-1.247,-1.2483,-1.2467,-1.2479,-1.2467,-1.2478,-1.2471,-1.2493,-1.2495,-1.2493,-1.2491,-1.2494,-1.2495,-1.2498,-1.2495,-1.2485,-1.2485,-1.2485,-1.2484,0,-1.247,-1.2462,-1.2485,-1.2483,-1.2482,-1.25,-1.2497,-1.251,-1.2505,-1.2522,-1.2525,-1.2518,-1.253,-1.2522,-1.2534,-1.253,-1.2558,-1.2552,-1.2557,-1.2555,-1.2577,-1.2575,-1.265,-1.2659,-1.2589,-1.259,-1.259,0,-1.2504,-1.252,-1.2519,-1.2526,-1.2528,-1.254,-1.2546,-1.2534,-1.2542,-1.2546,-1.2558,-1.2569,-1.2577,-1.2598,-1.2594,-1.2603,-1.2597,-1.2622,-1.2598,-1.2601,-1.2598,-1.2597,-1.2598,-1.2627,-1.2628,-1.2629,-1.2629,0,-1.2566,-1.2561,-1.257,-1.2579,-1.2586,-1.2592,-1.2597,-1.2604,-1.2592,-1.2601,-1.2613,-1.262,-1.2632,-1.2643,-1.2651,-1.2651,-1.2639,-1.2637,-1.2642,-1.2646,-1.2649,-1.2648,-1.257,-1.2635,-1.2635,-1.2634,-1.2634,-1.2634,-1.2612,-1.2625,-1.2626,-1.2637,-1.2639,-1.2644,-1.2655,-1.2652,-1.2662,-1.2671,-1.2663,-1.2678,-1.268,-1.2689,-1.2691,-1.2702,-1.2692,-1.27,-1.2702,-1.2704,-1.2707,-1.2647,-1.2704,-1.2703,-1.2703,-1.2703,-1.2703,0,-1.2672,-1.2672,-1.2682,-1.2689,-1.2698,-1.2684,-1.2689,-1.2697,-1.271,-1.2713,-1.2721,-1.2735,-1.2746,-1.2742,-1.2751,-1.2761,-1.2756,-1.2764,-1.2763,-1.2764,-1.2716,-1.271,-1.2768,-1.2768,-1.2768,-1.2768,-1.2768,-1.2768,-1.2705,-1.2726,-1.2721,-1.2743,-1.2743,-1.2757,-1.2761,-1.2765,-1.2767,-1.2783,-1.2792,-1.2789,-1.2789,-1.2798,-1.2808,-1.2806,-1.2811,-1.2821,-1.2818,-1.2774,-1.2767,-1.2761,-1.2756,-1.2822,-1.2822,-1.2865,-1.2865,-1.2865]}]]